SCP
3 3 1 1 1 1 1 1 1 0 0 0 0 0 0 0 0 0 0 0 0 0 0 0 0 0 0 0 0 0 0 0
4 3 1 1 1 1 1 1 1 1 1 0 0 0 0 0 0 0 0 0 0 0 0 0 0 0 0 0 0 0 -0 0
2 2 2 2 1 1 1 1 1 1 1 1 0 0 0 0 0 0 0 0 0 0 -0 -0 0 0 0 0 0 0 0 0
2 3 3 2 1 1 1 1 1 1 0 0 0 0 0 0 0 0 0 0 0 0 -0 -0 0 0 0 0 0 0 0 0
3 3 2 2 1 1 0 0 1 1 0 0 0 0 0 0 0 0 0 0 0 0 0 0 0 0 0 0 0 0 0 0
1 2 2 1 1 1 1 0 0 0 0 0 0 0 0 0 0 0 0 0 0 0 0 0 0 0 0 0 0 0 0 0
0 2 3 1 1 1 1 0 0 0 0 0 0 0 0 0 0 0 0 0 0 0 0 0 0 0 0 0 0 0 0 0
2 3 2 2 1 0 0 0 0 0 0 0 0 0 0 0 0 0 0 0 0 0 0 0 0 0 0 0 0 0 0 0
1 3 2 1 1 0 0 0 0 0 1 1 0 1 1 0 0 0 0 0 1 0 0 0 0 0 0 0 0 0 0 0
1 1 1 1 0 0 0 0 0 0 0 1 2 1 2 1 1 1 1 1 1 1 1 0 1 0 0 0 0 0 0 0
1 1 0 0 0 0 0 0 0 0 0 1 1 1 1 1 2 2 2 1 1 1 1 0 0 0 0 0 0 0 0 0
0 0 0 0 -0 -0 -0 0 0 0 0 1 1 1 1 1 1 1 1 1 2 1 0 0 0 0 0 0 0 0 0 0
0 0 0 -0 0 -0 -0 -0 -0 0 0 0 0 0 1 1 1 1 1 0 0 0 0 0 0 0 0 0 0 0 0 0
0 0 0 0 0 0 0 -0 0 0 0 0 0 1 1 0 0 0 0 0 0 0 0 0 0 0 0 0 0 0 0 0
0 1 1 0 0 0 0 0 0 1 0 0 0 0 0 0 0 0 0 0 0 0 0 0 0 0 0 0 0 0 0 0
0 2 3 1 1 0 0 1 1 1 0 0 0 0 0 0 0 0 0 0 0 0 0 0 0 0 0 0 0 0 0 0
0 2 2 2 1 1 1 1 1 0 0 0 0 0 0 0 0 0 0 0 0 0 0 0 0 0 0 0 0 0 0 0
1 3 2 1 2 2 1 0 0 0 0 0 0 0 0 0 0 0 0 0 0 0 0 0 0 0 0 0 0 0 0 0
4 3 3 3 2 1 0 0 0 0 0 0 0 0 0 0 0 0 0 0 0 0 0 0 0 0 0 0 0 0 0 0
4 4 3 2 0 0 0 0 0 0 0 0 0 0 0 0 0 0 0 0 0 0 0 0 0 0 0 0 0 0 0 0
Wind_Speed_500mb
84 84 84 90 87 83 79 75 70 64 61 57 52 47 42 37 33 31 29 29 27 25 20 14 10 11 7 9 6 3 7 10
85 84 82 85 88 84 79 74 69 65 59 58 53 49 42 36 33 31 29 29 29 26 20 19 19 13 12 13 8 2 2 8
91 89 83 76 85 83 80 73 67 64 60 55 51 43 37 32 29 28 27 28 24 22 25 24 17 12 9 5 3 7 9 13
95 93 82 75 76 75 79 76 73 66 61 57 50 42 36 32 30 28 28 28 26 22 23 22 15 12 7 4 7 12 16 20
59 92 87 80 75 76 77 79 77 72 66 58 49 41 37 36 33 33 32 31 29 25 19 13 10 10 8 10 14 22 29 30
71 70 82 80 79 80 76 73 76 71 63 55 51 51 49 45 41 42 38 36 30 27 24 15 13 18 20 25 29 29 30 32
81 79 85 80 80 78 74 73 73 72 63 55 51 54 44 36 33 38 35 35 31 28 24 21 25 22 24 32 30 29 31 35
88 92 97 90 88 78 72 72 71 72 65 61 53 46 40 38 38 40 38 36 31 32 28 30 30 32 35 33 37 41 40 47
68 86 94 90 81 82 79 74 72 76 70 55 60 60 52 46 45 37 41 42 40 40 37 36 34 35 37 36 39 43 49 53
62 78 78 76 81 84 80 71 72 73 62 58 70 66 49 47 47 48 45 43 42 35 43 43 36 33 35 33 33 37 42 41
68 76 82 83 86 79 69 69 65 62 66 67 65 47 44 52 59 50 50 44 41 46 47 36 30 28 26 31 30 30 26 30
69 79 90 90 75 65 65 63 64 67 63 69 63 60 69 75 59 59 52 44 39 42 40 31 24 21 20 20 20 20 23 19
60 75 76 67 67 60 58 62 62 72 64 68 61 61 62 64 57 47 42 37 45 40 35 25 18 14 17 16 18 16 19 25
53 60 66 71 66 67 65 68 65 70 64 48 61 55 65 52 53 48 41 18 27 37 28 18 15 15 15 15 15 18 22 26
57 56 71 73 64 60 67 75 79 66 55 38 44 27 54 48 29 14 18 16 51 31 24 11 11 13 16 18 16 20 25 31
62 56 64 66 61 58 65 68 76 62 36 34 33 33 43 47 33 9 27 46 34 24 14 8 15 18 17 16 20 25 29 34
65 63 65 65 61 67 71 71 52 45 36 37 35 32 29 10 33 28 39 32 16 8 8 12 14 14 14 19 24 29 32 36
71 67 66 68 71 79 73 67 54 42 41 33 30 31 30 41 47 41 27 14 12 13 13 9 7 12 21 26 29 33 37 42
65 66 65 70 76 79 68 54 50 46 37 27 28 29 48 53 41 34 22 17 14 10 3 6 14 17 22 28 33 37 40 41
71 73 76 76 73 65 61 56 49 38 40 40 37 30 36 30 24 15 11 11 7 2 3 9 13 20 26 33 38 38 36 35
Wind_Direction_500mb
200 191 191 188 187 185 185 186 185 185 185 185 186 190 193 195 197 197 195 192 194 195 193 182 168 126 159 190 183 153 243 251
194 189 191 191 189 188 188 190 188 188 189 190 191 192 194 196 198 197 198 196 197 199 191 172 154 132 102 130 152 180 263 238
196 198 194 192 190 191 192 190 193 192 193 194 195 193 194 198 201 200 201 202 200 195 183 177 176 180 164 174 240 274 280 285
196 197 195 194 192 191 192 191 196 197 196 195 195 194 197 201 204 206 204 202 200 194 190 190 190 183 189 239 260 269 288 290
193 198 198 196 195 191 189 193 195 196 197 195 195 198 204 208 210 212 209 207 200 200 194 187 195 210 237 272 292 290 293 288
201 208 205 200 200 195 189 194 195 196 197 199 203 204 205 210 212 217 217 211 204 205 203 193 220 244 257 264 268 273 276 282
206 203 211 210 209 195 194 194 196 197 195 200 201 200 203 203 207 206 200 186 185 204 216 221 237 257 269 276 286 277 279 282
205 212 211 209 209 204 200 196 198 196 195 197 206 209 212 192 197 198 200 205 197 206 208 222 231 251 265 277 280 281 284 292
184 201 209 210 205 200 203 199 200 195 194 218 221 214 210 204 207 211 210 223 216 213 212 226 230 249 265 274 278 283 293 296
172 181 185 190 197 198 201 202 201 206 219 230 230 219 212 209 218 225 224 224 234 231 226 238 238 256 275 284 286 286 292 298
177 180 179 182 187 190 195 199 202 206 215 226 221 213 212 210 218 223 229 240 229 227 234 240 253 266 278 285 290 295 297 302
187 181 182 182 181 185 190 198 202 211 216 217 218 232 213 212 215 221 220 234 225 239 241 241 242 257 274 286 296 297 299 301
197 191 186 184 185 189 194 196 201 213 213 220 222 220 226 218 218 222 239 225 231 239 229 235 245 269 279 299 289 287 290 295
215 202 196 190 191 195 198 197 203 207 214 223 228 243 228 223 246 242 242 176 225 234 230 232 269 286 302 296 301 302 299 299
212 199 191 190 193 197 200 200 208 209 207 218 223 251 231 216 252 242 353 336 210 224 242 239 263 285 289 294 297 299 304 306
213 211 199 195 194 196 196 200 206 207 212 223 225 222 220 229 253 188 187 195 194 199 220 254 268 278 281 290 301 310 309 308
199 201 198 196 196 187 190 194 196 201 198 208 207 209 202 176 196 204 199 204 196 235 227 244 250 265 287 311 315 314 309 306
194 190 193 190 184 182 183 186 183 187 192 184 207 208 184 183 197 189 180 180 199 199 202 199 233 302 310 308 307 311 313 311
176 174 176 173 173 180 179 172 172 169 170 177 134 134 137 139 142 140 152 160 170 168 190 305 302 297 309 316 320 317 316 317
154 149 153 156 160 157 157 163 158 151 148 142 145 154 164 171 167 160 172 181 162 164 280 292 313 318 321 324 325 326 330 335
Wind_Speed_850mb
84 84 84 90 87 83 79 75 70 64 61 57 52 47 42 37 33 31 29 29 27 25 20 14 10 11 7 9 6 3 7 10
85 84 82 85 88 84 79 74 69 65 59 58 53 49 42 36 33 31 29 29 29 26 20 19 19 13 12 13 8 2 2 8
91 89 83 76 85 83 80 73 67 64 60 55 51 43 37 32 29 28 27 28 24 22 25 24 17 12 9 5 3 7 9 13
95 93 82 75 76 75 79 76 73 66 61 57 50 42 36 32 30 28 28 28 26 22 23 22 15 12 7 4 7 12 16 20
59 92 87 80 75 76 77 79 77 72 66 58 49 41 37 36 33 33 32 31 29 25 19 13 10 10 8 10 14 22 29 30
71 70 82 80 79 80 76 73 76 71 63 55 51 51 49 45 41 42 38 36 30 27 24 15 13 18 20 25 29 29 30 32
81 79 85 80 80 78 74 73 73 72 63 55 51 54 44 36 33 38 35 35 31 28 24 21 25 22 24 32 30 29 31 35
88 92 97 90 88 78 72 72 71 72 65 61 53 46 40 38 38 40 38 36 31 32 28 30 30 32 35 33 37 41 40 47
68 86 94 90 81 82 79 74 72 76 70 55 60 60 52 46 45 37 41 42 40 40 37 36 34 35 37 36 39 43 49 53
62 78 78 76 81 84 80 71 72 73 62 58 70 66 49 47 47 48 45 43 42 35 43 43 36 33 35 33 33 37 42 41
68 76 82 83 86 79 69 69 65 62 66 67 65 47 44 52 59 50 50 44 41 46 47 36 30 28 26 31 30 30 26 30
69 79 90 90 75 65 65 63 64 67 63 69 63 60 69 75 59 59 52 44 39 42 40 31 24 21 20 20 20 20 23 19
60 75 76 67 67 60 58 62 62 72 64 68 61 61 62 64 57 47 42 37 45 40 35 25 18 14 17 16 18 16 19 25
53 60 66 71 66 67 65 68 65 70 64 48 61 55 65 52 53 48 41 18 27 37 28 18 15 15 15 15 15 18 22 26
57 56 71 73 64 60 67 75 79 66 55 38 44 27 54 48 29 14 18 16 51 31 24 11 11 13 16 18 16 20 25 31
62 56 64 66 61 58 65 68 76 62 36 34 33 33 43 47 33 9 27 46 34 24 14 8 15 18 17 16 20 25 29 34
65 63 65 65 61 67 71 71 52 45 36 37 35 32 29 10 33 28 39 32 16 8 8 12 14 14 14 19 24 29 32 36
71 67 66 68 71 79 73 67 54 42 41 33 30 31 30 41 47 41 27 14 12 13 13 9 7 12 21 26 29 33 37 42
65 66 65 70 76 79 68 54 50 46 37 27 28 29 48 53 41 34 22 17 14 10 3 6 14 17 22 28 33 37 40 41
71 73 76 76 73 65 61 56 49 38 40 40 37 30 36 30 24 15 11 11 7 2 3 9 13 20 26 33 38 38 36 35
Wind_Direction_850mb
200 191 191 188 187 185 185 186 185 185 185 185 186 190 193 195 197 197 195 192 194 195 193 182 168 126 159 190 183 153 243 251
194 189 191 191 189 188 188 190 188 188 189 190 191 192 194 196 198 197 198 196 197 199 191 172 154 132 102 130 152 180 263 238
196 198 194 192 190 191 192 190 193 192 193 194 195 193 194 198 201 200 201 202 200 195 183 177 176 180 164 174 240 274 280 285
196 197 195 194 192 191 192 191 196 197 196 195 195 194 197 201 204 206 204 202 200 194 190 190 190 183 189 239 260 269 288 290
193 198 198 196 195 191 189 193 195 196 197 195 195 198 204 208 210 212 209 207 200 200 194 187 195 210 237 272 292 290 293 288
201 208 205 200 200 195 189 194 195 196 197 199 203 204 205 210 212 217 217 211 204 205 203 193 220 244 257 264 268 273 276 282
206 203 211 210 209 195 194 194 196 197 195 200 201 200 203 203 207 206 200 186 185 204 216 221 237 257 269 276 286 277 279 282
205 212 211 209 209 204 200 196 198 196 195 197 206 209 212 192 197 198 200 205 197 206 208 222 231 251 265 277 280 281 284 292
184 201 209 210 205 200 203 199 200 195 194 218 221 214 210 204 207 211 210 223 216 213 212 226 230 249 265 274 278 283 293 296
172 181 185 190 197 198 201 202 201 206 219 230 230 219 212 209 218 225 224 224 234 231 226 238 238 256 275 284 286 286 292 298
177 180 179 182 187 190 195 199 202 206 215 226 221 213 212 210 218 223 229 240 229 227 234 240 253 266 278 285 290 295 297 302
187 181 182 182 181 185 190 198 202 211 216 217 218 232 213 212 215 221 220 234 225 239 241 241 242 257 274 286 296 297 299 301
197 191 186 184 185 189 194 196 201 213 213 220 222 220 226 218 218 222 239 225 231 239 229 235 245 269 279 299 289 287 290 295
215 202 196 190 191 195 198 197 203 207 214 223 228 243 228 223 246 242 242 176 225 234 230 232 269 286 302 296 301 302 299 299
212 199 191 190 193 197 200 200 208 209 207 218 223 251 231 216 252 242 353 336 210 224 242 239 263 285 289 294 297 299 304 306
213 211 199 195 194 196 196 200 206 207 212 223 225 222 220 229 253 188 187 195 194 199 220 254 268 278 281 290 301 310 309 308
199 201 198 196 196 187 190 194 196 201 198 208 207 209 202 176 196 204 199 204 196 235 227 244 250 265 287 311 315 314 309 306
194 190 193 190 184 182 183 186 183 187 192 184 207 208 184 183 197 189 180 180 199 199 202 199 233 302 310 308 307 311 313 311
176 174 176 173 173 180 179 172 172 169 170 177 134 134 137 139 142 140 152 160 170 168 190 305 302 297 309 316 320 317 316 317
154 149 153 156 160 157 157 163 158 151 148 142 145 154 164 171 167 160 172 181 162 164 280 292 313 318 321 324 325 326 330 335